Terug naar catalogus

STARLINK-36626

ActiefCommunicatieSSO
NORAD 67603·PAYLOAD·🇺🇸 United States

Gelanceerd Jan 29, 2026 vanaf Vandenberg Space Force Base

Loading…

Volgende Passages (komende 24 uur)

TLE

VersSource: CelesTrak SupGP

Epoch: Sep 14, 2026, 21:24 UTC

1 67603C 26018Q   26257.89215278 -.00014614  00000+0 -45371-3 0  2570
2 67603  97.2850 321.4508 0001054  90.4854 215.7258 15.33442472    14

Volg STARLINK-36626 in realtime met AllMySat

Download on the App Store